Regional Weather Roundup
Issued by NWS San Angelo, TX

Home | Current Version | Previous Version | Text Only | Print | Product List | Glossary On
Versions: 1 2 3 4 5 6 7 8 9 10 11 12 13 14 15 16 17 18 19 20 21 22 23 24 25 26 27 28 29 30 31 32 33 34 35 36 37 38 39 40 41 42 43 44 45 46 47 48 49 50
000
ASUS44 KSJT 220310
RWRSJT
WEST CENTRAL TEXAS REGIONAL WEATHER ROUNDUP
NATIONAL WEATHER SERVICE SAN ANGELO TX
900 PM CST FRI NOV 21 2014

NOTE: "FAIR" INDICATES FEW OR NO CLOUDS BELOW 12,000 FEET WITH NO
SIGNIFICANT WEATHER AND/OR OBSTRUCTIONS TO VISIBILITY.

TXZ049-054-064>066-071>073-076>078-098-099-113-114-127-128-139-140-
154-155-168>170-220400
...LOCATIONS ACROSS WEST CENTRAL TEXAS...

CITY           SKY/WX    TMP DP  RH WIND       PRES   REMARKS
SAN ANGELO     MOCLDY    63  53  70 SE3       30.00S
ABILENE        CLEAR     60  52  74 SE9       30.00S
DYESS AFB      CLEAR     57  51  78 SW1       30.00R
JUNCTION       PTCLDY    63  59  87 E7        30.01R
SWEETWATER     CLEAR     58  50  76 SE8       30.03S
BROWNWOOD      CLOUDY    66  61  82 SE10      30.03R
COLEMAN        MOCLDY    62  56  80 S6        30.03R
SONORA         MOCLDY    66  61  82 SE7       30.04F
OZONA          MOCLDY    63  55  77 SE5       30.03R
BRADY          PTCLDY    63  59  88 SE6       30.02R
$$

TEXAS PANHANDLE/OKLAHOMA PANHANDLE

CITY           SKY/WX    TMP DP  RH WIND       PRES   REMARKS
AMARILLO       MOCLDY    42  36  79 SE7       30.02R WCI  38
BORGER         MOCLDY    49  36  61 S15       29.99R
CANADIAN       PTCLDY    40  38  95 E7        30.02R FOG     WCI  35
DALHART        CLOUDY    40  30  67 S8        29.99R WCI  34
DUMAS            N/A     44  35  71 S10       30.00R WCI  38
GUYMON         NOT AVBL
HEREFORD       PTCLDY    47  34  59 SE8       30.00S
PAMPA          MOCLDY    40  37  88 S9        30.01S WCI  34
PERRYTON       MOCLDY    40  36  86 SE8       29.99S WCI  34
$$

SOUTHERN PANHANDLE/SOUTH PLAINS/ROLLING PLAINS

CITY           SKY/WX    TMP DP  RH WIND       PRES   REMARKS
LUBBOCK        PTCLDY    47  38  71 SE10      30.00S
SNYDER         CLOUDY    57  48  71 E8        30.01R
CHILDRESS      MOCLDY    45  40  82 NE5       30.03R
SEMINOLE       PTCLDY    52  42  68 CALM      30.01R
$$

PERMIAN BASIN

CITY           SKY/WX    TMP DP  RH WIND       PRES   REMARKS
MIDLAND        MOCLDY    58  51  78 SE8       29.99R
ODESSA         MOCLDY    60  52  74 S8        30.00R
WINK           CLEAR     58  49  72 SE9       29.96R
$$

FAR WEST/SOUTHWEST MOUNTAINS/TRANS PECOS

CITY           SKY/WX    TMP DP  RH WIND       PRES   REMARKS
ALPINE         PTCLDY    52  42  68 S6        30.05R
DRYDEN           N/A     59  57  93 NE7       29.96S
EL PASO        CLOUDY    58  23  26 NE7       29.97R
FORT STOCKTON  PTCLDY    57  52  83 SE17      29.96S
GUADALUPE PASS CLOUDY    53  27  36 NE24      30.03R
MARFA          PTCLDY    54  36  50 N3        30.01S
PECOS          MOCLDY    54  48  81 NE5       29.95R
$$

DALLAS/FORT WORTH METROPLEX

CITY           SKY/WX    TMP DP  RH WIND       PRES   REMARKS
DFW AIRPORT    CLOUDY    64  62  93 SE14      30.06S
FTW MEACHAM    CLOUDY    66  62  87 SE15G24   30.05S
DAL-EXECUTIVE  CLOUDY    66  61  84 SE14      30.07S
GRAND PRAIRIE  CLOUDY    65  63  93 SE8       30.08S
ADDISON        NOT AVBL
MESQUITE       CLOUDY    63  60  89 SE12G21   30.10R
LANCASTER      CLOUDY    63  59  87 SE14G21   30.09S
$$

NORTH CENTRAL TEXAS

CITY           SKY/WX    TMP DP  RH WIND       PRES   REMARKS
SHRMAN/DENISON CLOUDY    63  63  99 SE10      30.10R
GAINESVILLE    CLOUDY    62  60  94 SE10      30.09R FOG
BRIDGEPORT     CLOUDY    65  63  91 SE9       30.07R
DENTON         CLOUDY    64  62  93 S16       30.07R
WAXAHACHIE     CLOUDY    64  64  97 SE12      30.09S
GRANBURY       CLOUDY    67  63  85 SE14G20   30.06R
$$

WESTERN NORTH TEXAS

CITY           SKY/WX    TMP DP  RH WIND       PRES   REMARKS
WICHITA FALLS  MOCLDY    54  49  83 E5        30.02S
VERNON         PTCLDY    46  41  81 NE5       30.03S
BRECKENRIDGE   PTCLDY    67  61  81 SE13G23   30.01S
COMANCHE       CLOUDY    65  65 100 SE10      30.04R
$$

CENTRAL AND SOUTH CENTRAL TEXAS

CITY           SKY/WX    TMP DP  RH WIND       PRES   REMARKS
AUSTIN/BERGSTM CLOUDY    68  65  90 SE14      30.06R
WACO           LGT RAIN  66  63  90 SE17      30.07R
HILLSBORO      CLOUDY    65  61  86 SE17G23   30.08R
TEMPLE         CLOUDY    64  61  88 SE15G25   30.05R
KILLEEN-GRAY   LGT RAIN  65  65  97 S18       30.06R
FORT HOOD      LGT RAIN  68  65  90 SE16      30.06R
GEORGETOWN     SHOWER    66  64  94 S14G22    30.05R
LAGO VISTA     TSTM      67  65  93 SE7G16    30.08R
SAN MARCOS     CLOUDY    68  64  88 SE15      30.07R
NEW BRAUNFELS  CLOUDY    70  65  84 S16       30.05R
RANDOLPH AFB   CLOUDY    68  64  88 SE12      30.06R
SAN ANTONIO    CLOUDY    69  66  90 SE17      30.05R
STINSON        CLOUDY    68  65  90 SE12      30.03S
PLEASANTON     NOT AVBL
LA GRANGE      MOCLDY    68  66  92 SE7       30.07R
GIDDINGS       CLOUDY    66  64  91 S9        30.13R
$$

EAST TEXAS

CITY           SKY/WX    TMP DP  RH WIND       PRES   REMARKS
PARIS          CLOUDY    59  55  88 SE15G21   30.15R
CLARKSVILLE    NOT AVBL
TYLER          LGT RAIN  61  57  87 SE16      30.14S
LONGVIEW       MOCLDY    60  54  80 SE12      30.17S
PALESTINE      CLOUDY    61  60  97 SE9       30.15S
NACOGDOCHES    CLOUDY    59  54  82 SE7       30.19S
$$

TEXAS HILL COUNTRY AND EDWARDS PLATEAU

CITY           SKY/WX    TMP DP  RH WIND       PRES   REMARKS
LLANO          CLOUDY    64  63  94 SE9       30.07R
HORSESHOE BAY  LGT RAIN  62  60  94 S9        30.06R
KERRVILLE      CLOUDY    65  63  93 SE16G25   30.03S
FREDERICKSBRG  CLOUDY    66  63  89 S14G23    30.04R
ROCKSPRINGS    CLOUDY    66  63  88 MISG      30.03R
HONDO          CLOUDY    63  63 100 SE16      30.04R
UVALDE         CLOUDY    70  68  91 SE10      30.00R
DEL RIO        MOCLDY    63  60  90 CALM      29.96R
$$

SOUTHEAST TEXAS

CITY           SKY/WX    TMP DP  RH WIND       PRES   REMARKS
COLLEGE STN    CLOUDY    64  62  93 E12       30.11R
CALDWELL       CLOUDY    64  64 100 SE8       30.13R
CROCKETT       CLOUDY    63  61  94 SE3       30.19R
BRENHAM        MOCLDY    67  65  93 SE10G20   30.11R
HUNTSVILLE     CLOUDY    62  60  93 SE6       30.15R
CONROE         CLOUDY    62  60  93 SE12      30.15R
HOUSTON BUSH   MOCLDY    63  61  94 SE13      30.14R
HOUSTON HOBBY  MOCLDY    63  61  93 E10       30.14R
PERLAND        CLOUDY    64  62  93 E8        30.15R
WHARTON          N/A     66  64  91 E8        30.11S
$$

THE UPPER TEXAS COAST

CITY           SKY/WX    TMP DP  RH WIND       PRES   REMARKS
ORANGE         CLOUDY    63  55  75 E9G23     30.20S
PORT ARTHUR    MOCLDY    62  54  74 E20G26    30.17F
GALVESTON      CLEAR     65  63  93 E14       30.14S
ANGLETON       CLOUDY    64  63  96 E6        30.12R
BAY CITY         N/A     68  66  92 SE5       30.11S
$$

TEXAS COASTAL BEND, RIO GRANDE PLAINS DEEP SOUTH TEXAS

CITY           SKY/WX    TMP DP  RH WIND       PRES   REMARKS
VICTORIA       CLOUDY    67  65  93 E10       30.08R
BEEVILLE       CLOUDY    70  67  89 SE9G16    30.06R
ROCKPORT       CLOUDY    68  64  87 SE9       30.06R
PORT ARANSAS   CLOUDY    70  66  86 SE9       30.06R
PORT LAVACA    CLOUDY    65  63  93 SE9       30.09R
CORPUS CHRISTI CLOUDY    72  66  81 SE9       30.05R
KINGSVILLE NAS CLOUDY    73  68  84 SE12      30.04R
COTULLA        CLOUDY    73  65  75 SE13      30.01R
LAREDO         MOCLDY    71  68  90 SE15      30.00S
BROWNSVILLE    CLOUDY    73  68  84 SE10      30.02S
PORT ISABEL    MOCLDY    71  67  87 SE13      30.01S
HEBBRONVILLE   CLOUDY    71  64  78 SE12G17   30.03R
MCALLEN        CLOUDY    72  68  87 SE13      30.01R
WESLACO        MOCLDY    72  66  81 SE8       30.00S
FALFURRIAS     CLOUDY    73  66  79 SE9       30.02R
EDINBURG       CLOUDY    73  67  80 SE8       30.02R
$$


USA.gov is the U.S. government's official web portal to all federal, state and local government web resources and services.